Regional Weather Roundup
Issued by NWS

Home | Current Version | Previous Version | Text Only | Print | Product List | Glossary On
Versions: 1 2 3 4 5 6 7 8 9 10 11 12 13 14 15 16 17 18 19 20 21 22 23 24 25 26 27 28 29 30 31 32 33 34 35 36 37 38 39 40 41 42 43 44 45 46 47 48 49 50
000
ASUS43 KMKX 300759
RWRWI

WISCONSIN REGIONAL WEATHER ROUNDUP
NATIONAL WEATHER SERVICE MILWAUKEE/SULLIVAN WI
300 AM CDT MON MAR 30 2015

NOTE: "FAIR" INDICATES FEW OR NO CLOUDS BELOW 12,000 FEET WITH NO
SIGNIFICANT WEATHER AND/OR OBSTRUCTIONS TO VISIBILITY.

WIZ001-002-006>008-014>016-023>028-300900-
NORTHWEST WISCONSIN

CITY           SKY/WX    TMP DP  RH WIND       PRES   REMARKS
SUPERIOR ARPT  CLEAR     35  26  71 SW9       29.87R WCI  27
ASHLAND        CLEAR     34  25  69 SW6       29.83S WCI  29
HAYWARD        CLEAR     28  24  85 S3        29.87R
SIREN          CLEAR     36  25  63 W8        29.91R WCI  30
CUMBERLAND     CLEAR     34  27  75 W10       29.90R WCI  26
RICE LAKE      CLEAR     34  26  72 W6        29.91S WCI  29
CHETEK         CLEAR     37  26  64 W6        29.90S WCI  32
LADYSMITH      CLEAR     34  26  74 W5        29.89S WCI  30
EAU CLAIRE     NOT AVBL
MENOMONIE      CLEAR     37  25  62 W6        29.93S WCI  32
NEW RICHMOND   CLOUDY    37  26  62 W8        29.94S WCI  31
OSCEOLA        CLOUDY    37  28  69 SW8       29.97R WCI  31
$$

WIZ003>005-009-010-017-018-300900-
NORTH CENTRAL WISCONSIN

CITY           SKY/WX    TMP DP  RH WIND       PRES   REMARKS
MANITOWISH WTR PTCLDY    32  27  80 W7        29.79S WCI  26
ARBOR VITAE    PTCLDY    35  29  76 W6        29.80S WCI  30
WOODRUFF       PTCLDY    35  29  76 W6        29.80S WCI  30
RHINELANDER    PTCLDY    31  25  78 W12       29.81S WCI  22
EAGLE RIVER    CLEAR     32  25  73 W9        29.78R WCI  25
LAND O LAKES   PTCLDY    32  27  81 W7        29.77S WCI  26
PHILLIPS       CLEAR     32  26  78 CALM      29.83S
TOMAHAWK       CLEAR     32  26  76 CALM      29.84S
MEDFORD        CLEAR     33  26  75 W8        29.86F WCI  27
MERRILL        CLEAR     32  28  83 W8        29.85R WCI  25
$$

WIZ029-030-035-036-043>047-300900-
CENTRAL WISCONSIN

CITY           SKY/WX    TMP DP  RH WIND       PRES   REMARKS
WAUSAU         CLEAR     34  27  75 NW10      29.84S WCI  26
MOSINEE        CLEAR     32  28  86 W7        29.88R WCI  26
MARSHFIELD     CLEAR     34  26  72 W9        29.89S WCI  27
STEVENS POINT  CLEAR     34  26  74 W7        29.89S WCI  28
WAUPACA        CLEAR     36  29  74 W7        29.89S WCI  31
WAUTOMA        NOT AVBL
WISC RAPIDS    CLEAR     32  24  72 W7        29.92S WCI  26
CAMP DOUGLAS   NOT AVBL
$$

WIZ011>013-019>022-031-037>040-048>050-300900-
NORTHEAST WISCONSIN

CITY           SKY/WX    TMP DP  RH WIND       PRES   REMARKS
ANTIGO         CLEAR     32  27  80 W7        29.82F WCI  26
SHAWANO        CLEAR     38  29  69 W6        29.85S WCI  33
OCONTO         CLEAR     35  29  80 W10       29.82R WCI  27
STURGEON BAY   CLEAR     36  28  75 W10       29.82S WCI  28
GREEN BAY      CLEAR     37  30  75 W13       29.85R WCI  29
MANITOWOC      NOT AVBL
APPLETON       CLEAR     34  28  80 W9        29.88R WCI  26
CLINTONVILLE   CLEAR     36  30  80 W8        29.86S WCI  29
OSHKOSH        CLEAR     36  29  75 W6        29.89R WCI  31
$$

WIZ032>034-041-042-053>061-300900-
SOUTHWEST WISCONSIN

CITY           SKY/WX    TMP DP  RH WIND       PRES   REMARKS
LA CROSSE      CLEAR     33  26  75 CALM      29.97R
SPARTA         CLEAR     37  28  70 SW6       29.95F WCI  32
VIROQUA        CLEAR     36  28  74 W8        29.95F WCI  30
BOSCOBEL       CLEAR     32  26  78 SW5       29.99S WCI  27
PRAIRIE DU CHI CLEAR     37  28  69 CALM      30.00F
PLATTEVILLE    CLEAR     36  29  77 SW9       29.99S WCI  29
$$

WIZ056-057-062-063-064-067-068-300900-
SOUTH CENTRAL WISCONSIN

CITY           SKY/WX    TMP DP  RH WIND       PRES   REMARKS
REEDSBURG      CLEAR     32  28  86 CALM      29.94S
BARABOO/DELLS  CLEAR     37  28  70 W6        29.94S WCI  32
LONE ROCK      NOT AVBL
MINERAL POINT  CLEAR     37  28  70 W9        29.97S WCI  31
MADISON        CLEAR     37  28  70 W5        29.94S WCI  33
MIDDLETON      CLEAR     37  28  71 W5        29.95S WCI  33
WATERTOWN      CLEAR     35  32  88 W6        29.93R WCI  30
MONROE         CLEAR     36  30  80 W14       29.96S WCI  27
JANESVILLE     CLEAR     36  30  80 W7        29.95S WCI  30
$$

WIZ051-052-058>065-066-070>072-300900-
SOUTHEAST WISCONSIN

CITY           SKY/WX    TMP DP  RH WIND       PRES   REMARKS
MILWAUKEE      MOCLDY    39  31  72 W3        29.93R
WAUKESHA       PTCLDY    36  32  87 W9        29.93S WCI  29
MILWAUKEE/TIMM MOCLDY    37  32  81 W7        29.92S WCI  32
RACINE         MOCLDY    37  31  78 W6        29.95R WCI  32
BURLINGTON     CLEAR     31  29  92 SW5       29.94S WCI  26
KENOSHA        PTCLDY    36  31  82 W7        29.94R WCI  30
FOND DU LAC    CLEAR     38  29  70 W9        29.90R WCI  31
SHEBOYGAN      CLEAR     37  29  72 W9        29.88R WCI  30
WEST BEND      PTCLDY    37  28  70 W10       29.90R WCI  30
JUNEAU         PTCLDY    35  30  82 W6        29.93R WCI  30
$$

LSZ147-162-300900-
LAKE SUPERIOR

STATION/POSITION TIME  TEMP    WIND        PRES    WAVE
                       AIR SEA DIR/SP/G            HT/PER
                 (UTC) (F)     (DEG/KT/KT) (MB)    (FT/S)
DEVILS ISLAND    0700   37     250/ 22/ 25 1008.9R
PORT WING        0740   39     230/  8/ 14 1010.5S
SAXON HARBOR     0700   38     210/ 10/ 13 1009.5
$$

LMZ867-665-643>646-300900-
LAKE MICHIGAN

STATION/POSITION TIME  TEMP    WIND        PRES    WAVE
                       AIR SEA DIR/SP/G            HT/PER
                 (UTC) (F)     (DEG/KT/KT) (MB)    (FT/S)
NORTHPORT PIER   0700   37     260/  5/ 13 1007.8R
SISTER BAY       0702   35     250/ 14/ 15   N/A
KEWAUNEE LAKESHO 0700   38     280/ 10/ 14 1008.9R
SHEBOYGAN LAKESH 0700   40     280/ 13/ 17 1012.2R
PORT WASHINGTON  0700   40     290/  6/ 11 1012.9R
MILWAUKEE LAKESH 0700   42     270/  7/  9   N/A
KENOSHA   LAKESH 0700   40     260/  8/ 11 1013.5R
$$

TC  - TEMPERATURE IN CELSIUS
VSB - VISIBILITY IN STATUTE MILES
WCI - WIND CHILL INDEX
HX  - HEAT INDEX




USA.gov is the U.S. government's official web portal to all federal, state and local government web resources and services.